[[{"header":{"parameterUnit":"m.s-1","parameterCategory":1,"la1":30.2991,"la2":30.254,"lo1":-89.0895,"lo2":-89.0444,"dy":0.0017,"dx":0.0017,"nx":28,"ny":28,"refTime":"2023-11-16T09:00:00:Z","depth":0,"parameterNumber":2,"parameterNumberName":"U-component_of_WINDS"},"data":[0,0,0,0,0,0,0,0,0,0,0,0,0,0,0,0,0,0,0,0,0,0,0,0,0,0,0,0,0,0,0,0,0,0,0,0,0,0,0,0,0,0,0,0,0,0,0,0,0,0,0,0,0,0,0,0,0,0,-1.8234,-1.8235,0,-1.8311,-1.8311,-1.8312,-1.8285,-1.8283,-1.8281,-1.8279,-1.8363,-1.8367,-1.837,0,0,0,0,0,0,0,0,0,0,0,0,0,-1.8068,-1.8071,-1.8234,-1.8235,-1.8236,-1.831,-1.8311,-1.8313,-1.8285,-1.8283,-1.8281,-1.8279,-1.8362,-1.8366,-1.8371,0,0,0,0,0,0,0,0,0,0,0,0,0,-1.8142,-1.8072,-1.8234,-1.8231,-1.8231,-1.831,-1.8311,-1.8313,-1.8285,-1.8283,-1.828,-1.8278,-1.836,-1.8366,-1.8371,-1.8459,0,0,-1.8389,-1.8391,0,0,0,0,0,0,0,0,-1.8138,-1.8148,-1.823,-1.8231,-1.8232,-1.8285,-1.8283,-1.8362,-1.8286,-1.8265,-1.8279,-1.8276,-1.8339,-1.8347,-1.8367,-1.8463,-1.8466,-1.8389,-1.8393,-1.8395,-1.8397,0,0,0,0,0,0,0,-1.8133,-1.8145,-1.8264,-1.8232,-1.8233,-1.8227,-1.8235,-1.8298,-1.8316,-1.8267,-1.8265,-1.8274,-1.8339,-1.8361,-1.8369,-1.8468,-1.8389,-1.8394,-1.8398,-1.84,-1.864,-1.8643,0,0,0,0,0,0,-1.8127,-1.8141,-1.8262,-1.8267,-1.8177,-1.8232,-1.8241,-1.8271,-1.8315,-1.8319,-1.8276,-1.8272,-1.8353,-1.8362,-1.8372,-1.8478,-1.8395,-1.8401,-1.8404,-1.8637,-1.8641,-1.8644,0,0,0,0,0,0,-1.8123,-1.8138,-1.8259,-1.8203,-1.8218,-1.8238,-1.8272,-1.8274,-1.8296,-1.8322,-1.8326,-1.8295,-1.8351,-1.8363,-1.8437,-1.8481,-1.8403,-1.8409,-1.8634,-1.8639,-1.8643,-1.8691,0,0,0,0,0,0,-1.8118,-1.8137,-1.8169,-1.8204,-1.8221,-1.8322,-1.8274,-1.8277,-1.8305,-1.8301,-1.8341,-1.8345,-1.835,-1.8429,-1.8443,-1.8487,-1.8413,-1.863,-1.8636,-1.8641,-1.8686,-1.8697,-1.8706,0,0,0,0,0,-1.8113,-1.8181,-1.8171,-1.8186,-1.8262,-1.8325,-1.8335,-1.8337,-1.8309,-1.8342,-1.8359,-1.8344,-1.8473,-1.8437,-1.8452,-1.8499,-1.8628,-1.8634,-1.8641,-1.8681,-1.8695,-1.8706,0,0,0,0,0,0,-1.8152,-1.8185,-1.8175,-1.8256,-1.8287,-1.832,-1.8362,-1.8351,-1.8393,-1.8388,-1.839,-1.84,-1.8476,-1.8495,-1.8453,-1.8586,-1.8546,-1.8556,-1.8572,-1.8585,-1.8594,-1.8589,-1.8418,0,0,0,0,0,-1.817,-1.8216,-1.8243,-1.8312,-1.8329,-1.8343,-1.837,-1.8369,-1.8403,-1.8417,-1.8439,-1.8474,-1.8522,-1.8554,-1.86,-1.8688,-1.8697,-1.8728,-1.8738,-1.8746,-1.8755,-1.8804,-1.8818,-1.8666,-1.8666,-1.8666,0,0,-1.8208,-1.8232,-1.8261,-1.8321,-1.8345,-1.8395,-1.8354,-1.8409,-1.8446,-1.8425,-1.8497,-1.8514,-1.8553,-1.8634,-1.8671,-1.8652,-1.8799,-1.8754,-1.876,-1.8765,-1.8812,-1.8827,-1.884,-1.867,-1.867,-1.8669,0,0,-1.8303,-1.8324,-1.8385,-1.841,-1.8447,-1.8456,-1.847,-1.8504,-1.8515,-1.8585,-1.8571,-1.8616,-1.8699,-1.8728,-1.8753,-1.8858,-1.8846,-1.8873,-1.8926,-1.8974,-1.8986,-1.8997,-1.9036,-1.905,-1.8882,-1.8882,-1.8882,0,-1.8346,-1.8419,-1.8418,-1.8473,-1.85,-1.8482,-1.8544,-1.8569,-1.862,-1.864,-1.8616,-1.872,-1.8745,-1.8833,-1.8859,-1.8879,-1.8898,-1.8869,-1.8984,-1.8995,-1.9005,-1.9042,-1.9057,-1.8885,-1.8885,-1.8884,-1.8884,0,-1.8471,-1.8521,-1.8566,-1.8614,-1.8646,-1.8705,-1.8714,-1.8747,-1.8743,-1.8754,-1.8828,-1.8856,-1.8908,-1.8928,-1.8926,-1.9017,-1.9004,-1.8983,-1.8943,-1.9023,-1.9058,-1.9072,-1.8889,-1.8888,-1.8887,-1.8887,0,0,-1.8594,-1.864,-1.8656,-1.8678,-1.8717,-1.8757,-1.8815,-1.8864,-1.8893,-1.8929,-1.8979,-1.9049,-1.9029,-1.9058,-1.9058,-1.91,-1.9183,-1.9074,-1.9075,-1.9094,-1.9287,-1.9304,-1.9321,-1.9174,-1.9177,-1.9179,-1.9285,0,-1.8693,-1.8794,-1.8794,-1.8888,-1.8936,-1.8918,-1.8969,-1.8999,-1.9012,-1.9055,-1.9069,-1.912,-1.9089,-1.9106,-1.9147,-1.9164,-1.9222,-1.9156,-1.9223,-1.9226,-1.9216,-1.9339,-1.9358,-1.9456,-1.9298,-1.93,-1.9302,0,-1.8823,-1.8861,-1.8959,-1.8991,-1.9011,-1.9057,-1.9102,-1.9143,-1.9178,-1.9184,-1.9215,-1.9209,-1.927,-1.9227,-1.9311,-1.9267,-1.9294,-1.9307,-1.9311,-1.9319,-1.927,-1.9352,-1.9487,-1.9502,-1.9323,-1.9322,-1.932,0,-1.8905,-1.8981,-1.905,-1.9068,-1.9108,-1.914,-1.9158,-1.919,-1.9219,-1.9259,-1.9279,-1.9325,-1.9352,-1.9389,-1.9396,-1.9364,-1.9482,-1.9439,-1.9491,-1.9491,-1.9518,-1.9517,-1.9661,-1.9532,-1.9532,-1.9532,-1.9532,0,-1.9017,-1.9078,-1.9087,-1.913,-1.9198,-1.9198,-1.9266,-1.9281,-1.931,-1.9356,-1.9344,-1.9388,-1.9394,-1.944,-1.9446,-1.9516,-1.9528,-1.9536,-1.9537,-1.9538,-1.9537,-1.9558,-1.9552,-1.9536,-1.9535,-1.9534,-1.9533,0,-1.9122,-1.913,-1.9204,-1.9234,-1.9243,-1.9292,-1.9319,-1.936,-1.937,-1.9429,-1.9443,-1.946,-1.9514,-1.9524,-1.9588,-1.9592,-1.9676,-1.967,-1.9664,-1.9664,-1.9716,-1.9712,-1.988,-1.9903,-1.9758,-1.9759,-1.976,0,-1.9193,-1.924,-1.9275,-1.9304,-1.9323,-1.9371,-1.9401,-1.9403,-1.9434,-1.9477,-1.9514,-1.9565,-1.9607,-1.9694,-1.9713,-1.9762,-1.9758,-1.9813,-1.9765,-1.9765,-1.9761,-1.9759,-1.9764,-1.9823,-1.9825,-1.9826,-1.9827,0,-1.9321,-1.9322,-1.9365,-1.9409,-1.9445,-1.948,-1.9513,-1.9539,-1.9545,-1.9582,-1.9635,-1.9668,-1.9732,-1.9784,-1.9833,-1.9853,-1.9842,-1.9841,-1.9856,-1.9859,-1.9855,-1.986,-1.9692,-1.9838,-1.9837,-1.9836,-1.9836,-1.9835,-1.9413,-1.9453,-1.9484,-1.9532,-1.9557,-1.9589,-1.9629,-1.9644,-1.9688,-1.974,-1.9738,-1.9798,-1.9832,-1.9895,-1.9919,-1.9966,-1.9949,-1.997,-1.9976,-1.9982,-1.9987,-1.9845,-1.9975,-1.9974,-1.9974,-1.9974,-1.9974,0,-1.9541,-1.956,-1.9604,-1.965,-1.9688,-1.9672,-1.9708,-1.9742,-1.9794,-1.9825,-1.9866,-1.9928,-1.9979,-2.0002,-2.0052,-2.0086,-2.0082,-2.0099,-2.0098,-2.0103,-1.9999,-1.9982,-2.0101,-2.0101,-2.0101,-2.0101,-2.0101,-2.0101,-1.9612,-1.9681,-1.9686,-1.9767,-1.9786,-1.9843,-1.9865,-1.9894,-1.992,-1.9989,-2.0031,-2.0044,-2.0073,-2.0125,-2.0171,-2.0176,-2.0197,-2.0216,-2.022,-2.0123,-2.011,-2.0098,-2.0082,-2.022,-2.022,-2.032,-2.0321,-2.0322]},{"header":{"parameterUnit":"m.s-1","parameterCategory":1,"la1":30.2991,"la2":30.254,"lo1":-89.0895,"lo2":-89.0444,"dy":0.0017,"dx":0.0017,"nx":28,"ny":28,"refTime":"2023-11-16T09:00:00:Z","depth":0,"parameterNumber":3,"parameterNumberName":"V-component_of_WINDS"},"data":[0,0,0,0,0,0,0,0,0,0,0,0,0,0,0,0,0,0,0,0,0,0,0,0,0,0,0,0,0,0,0,0,0,0,0,0,0,0,0,0,0,0,0,0,0,0,0,0,0,0,0,0,0,0,0,0,0,0,-3.6676,-3.6675,0,-3.6653,-3.6653,-3.6653,-3.6576,-3.6575,-3.6573,-3.6571,-3.655,-3.6551,-3.6552,0,0,0,0,0,0,0,0,0,0,0,0,0,-3.6654,-3.6655,-3.6676,-3.6675,-3.6675,-3.6653,-3.6653,-3.6653,-3.6577,-3.6574,-3.6572,-3.657,-3.655,-3.6551,-3.6552,0,0,0,0,0,0,0,0,0,0,0,0,0,-3.6651,-3.6655,-3.6676,-3.6634,-3.663,-3.6653,-3.6653,-3.6653,-3.6577,-3.6574,-3.6572,-3.6569,-3.6549,-3.6551,-3.6553,-3.6614,0,0,-3.6557,-3.6558,0,0,0,0,0,0,0,0,-3.6651,-3.6652,-3.6641,-3.6637,-3.6633,-3.6615,-3.6637,-3.664,-3.6578,-3.6597,-3.6571,-3.6568,-3.6574,-3.6573,-3.6575,-3.6613,-3.6612,-3.6557,-3.6558,-3.6559,-3.656,0,0,0,0,0,0,0,-3.6651,-3.6652,-3.6667,-3.6641,-3.6636,-3.6617,-3.6614,-3.6638,-3.6601,-3.6595,-3.659,-3.6588,-3.6571,-3.6574,-3.6574,-3.6612,-3.6557,-3.6559,-3.656,-3.656,-3.6699,-3.6702,0,0,0,0,0,0,-3.6657,-3.6653,-3.6667,-3.6666,-3.6636,-3.662,-3.6616,-3.6623,-3.66,-3.6594,-3.659,-3.6585,-3.6572,-3.6572,-3.6573,-3.6643,-3.6559,-3.6561,-3.6561,-3.6696,-3.67,-3.6703,0,0,0,0,0,0,-3.6657,-3.6659,-3.6668,-3.6658,-3.6658,-3.6623,-3.6632,-3.6624,-3.6626,-3.6596,-3.6589,-3.6599,-3.657,-3.6571,-3.6604,-3.6641,-3.6561,-3.6563,-3.6693,-3.6697,-3.6701,-3.6784,0,0,0,0,0,0,-3.6657,-3.666,-3.6682,-3.6659,-3.6659,-3.67,-3.6634,-3.6626,-3.6629,-3.6621,-3.6603,-3.6597,-3.6568,-3.6602,-3.6606,-3.6642,-3.6564,-3.669,-3.6695,-3.67,-3.6778,-3.6791,-3.6802,0,0,0,0,0,-3.6656,-3.6707,-3.6684,-3.6686,-3.6686,-3.6702,-3.6702,-3.6667,-3.6632,-3.6655,-3.6636,-3.6598,-3.6637,-3.6606,-3.661,-3.6647,-3.6687,-3.6693,-3.6699,-3.6773,-3.6788,-3.6801,0,0,0,0,0,0,-3.6737,-3.6703,-3.6677,-3.6722,-3.6715,-3.6689,-3.6717,-3.6684,-3.6688,-3.6681,-3.6637,-3.6634,-3.6674,-3.6664,-3.663,-3.6705,-3.6656,-3.6663,-3.671,-3.6725,-3.6736,-3.6738,-3.6565,0,0,0,0,0,-3.6759,-3.6775,-3.6745,-3.6787,-3.6785,-3.6752,-3.6758,-3.6731,-3.6723,-3.672,-3.6703,-3.6697,-3.6707,-3.6715,-3.6724,-3.6776,-3.6771,-3.6803,-3.6815,-3.6825,-3.6832,-3.6859,-3.6873,-3.6723,-3.6723,-3.6723,0,0,-3.6807,-3.6791,-3.6803,-3.6803,-3.6795,-3.6812,-3.675,-3.6771,-3.6784,-3.6723,-3.6753,-3.6741,-3.6731,-3.6775,-3.6793,-3.6767,-3.6872,-3.6833,-3.6841,-3.6842,-3.6866,-3.6881,-3.6893,-3.6727,-3.6726,-3.6726,0,0,-3.6902,-3.6891,-3.6925,-3.6918,-3.6906,-3.6883,-3.6892,-3.687,-3.686,-3.6889,-3.6844,-3.6859,-3.6878,-3.6873,-3.6873,-3.6966,-3.6932,-3.697,-3.7031,-3.7058,-3.707,-3.708,-3.7114,-3.7126,-3.6977,-3.6977,-3.6977,0,-3.6963,-3.6986,-3.6947,-3.6971,-3.6972,-3.6917,-3.6952,-3.6947,-3.6939,-3.6941,-3.6913,-3.6935,-3.6925,-3.6966,-3.6989,-3.6991,-3.6999,-3.6972,-3.7071,-3.7081,-3.709,-3.7122,-3.7134,-3.6982,-3.6981,-3.6981,-3.698,0,-3.7062,-3.7079,-3.7108,-3.71,-3.7105,-3.7134,-3.7099,-3.7109,-3.7082,-3.7063,-3.7094,-3.7079,-3.7083,-3.7091,-3.7065,-3.7129,-3.7114,-3.7079,-3.7028,-3.711,-3.7139,-3.715,-3.6989,-3.6987,-3.6985,-3.6984,0,0,-3.7207,-3.7177,-3.7188,-3.7184,-3.7167,-3.7179,-3.7206,-3.7209,-3.7219,-3.7215,-3.7236,-3.7254,-3.7221,-3.7221,-3.7195,-3.7218,-3.7293,-3.718,-3.718,-3.7202,-3.7362,-3.7388,-3.7403,-3.727,-3.7272,-3.7274,-3.7363,0,-3.7298,-3.734,-3.7306,-3.7355,-3.737,-3.7319,-3.7342,-3.7334,-3.7317,-3.7327,-3.7308,-3.7321,-3.7278,-3.7277,-3.7298,-3.728,-3.7325,-3.7273,-3.729,-3.7291,-3.7294,-3.7418,-3.7446,-3.7531,-3.7374,-3.7376,-3.7377,0,-3.7409,-3.7409,-3.746,-3.7439,-3.7444,-3.7465,-3.7465,-3.7476,-3.7467,-3.7452,-3.7452,-3.7419,-3.7444,-3.7395,-3.7429,-3.7394,-3.7399,-3.7391,-3.7393,-3.7394,-3.7339,-3.7422,-3.7557,-3.757,-3.7394,-3.7393,-3.7392,0,-3.751,-3.7523,-3.7555,-3.7553,-3.7529,-3.7545,-3.7536,-3.7524,-3.7528,-3.7529,-3.7531,-3.7535,-3.7537,-3.7541,-3.751,-3.7477,-3.7548,-3.7496,-3.7537,-3.7538,-3.7555,-3.7554,-3.7693,-3.7558,-3.7558,-3.7558,-3.7558,0,-3.7614,-3.7648,-3.76,-3.762,-3.7655,-3.7615,-3.7652,-3.7638,-3.7627,-3.7643,-3.7599,-3.7616,-3.7573,-3.7586,-3.7562,-3.7594,-3.7595,-3.7585,-3.7578,-3.7589,-3.759,-3.7591,-3.7585,-3.7561,-3.7561,-3.756,-3.7559,0,-3.7733,-3.7703,-3.7734,-3.7709,-3.7703,-3.7731,-3.7709,-3.7727,-3.7706,-3.7727,-3.773,-3.7698,-3.7711,-3.768,-3.7688,-3.7671,-3.7717,-3.7701,-3.7721,-3.7716,-3.7759,-3.7755,-3.7903,-3.7921,-3.7775,-3.7777,-3.7778,0,-3.7802,-3.7826,-3.7803,-3.7811,-3.7804,-3.7816,-3.782,-3.7782,-3.7788,-3.7778,-3.7797,-3.7805,-3.781,-3.7832,-3.781,-3.7816,-3.7799,-3.7851,-3.78,-3.781,-3.78,-3.7799,-3.7802,-3.7862,-3.7863,-3.7865,-3.7866,0,-3.7927,-3.7911,-3.7917,-3.7919,-3.7925,-3.7924,-3.7921,-3.793,-3.7889,-3.7898,-3.7909,-3.7913,-3.792,-3.7929,-3.793,-3.7921,-3.7888,-3.7882,-3.7892,-3.7903,-3.7914,-3.7909,-3.7749,-3.7879,-3.7878,-3.7877,-3.7876,-3.7875,-3.8023,-3.8042,-3.8029,-3.8038,-3.8031,-3.8029,-3.8044,-3.8025,-3.8033,-3.8036,-3.8013,-3.8029,-3.8019,-3.8016,-3.8011,-3.8024,-3.8001,-3.8015,-3.8019,-3.8023,-3.803,-3.7912,-3.8024,-3.8024,-3.8023,-3.8023,-3.8023,0,-3.8146,-3.8135,-3.8143,-3.8139,-3.8147,-3.8113,-3.8107,-3.8116,-3.8131,-3.8123,-3.8129,-3.8142,-3.815,-3.8129,-3.8134,-3.8149,-3.8133,-3.8152,-3.815,-3.8149,-3.8051,-3.8041,-3.8164,-3.8164,-3.8164,-3.8164,-3.8164,-3.8164,-3.8211,-3.8241,-3.8223,-3.825,-3.8238,-3.8253,-3.8253,-3.8251,-3.8245,-3.8261,-3.8268,-3.8253,-3.824,-3.8245,-3.8251,-3.8245,-3.8249,-3.8273,-3.8261,-3.817,-3.8156,-3.8143,-3.8134,-3.8274,-3.8274,-3.8358,-3.8359,-3.8359]}]]